Погода в Кепе

Россия / Республика Карелия     65°09′10″N   32°10′01″E
темп.,
°C
ветер,
м/с
пор.,
м/с
влажн.,
%
обл.,
%
осадки,
мм/ч
давл.,
гПа
погр.,
м
27 февраля, сб
сб2700:00−1ссз3796100 0.0 1003336
03:00−4ссз379596 0.0 1007197
06:00−4ссз4129165 0.0 1009405
09:00−4с4119149 0.0 1012394
12:00−2ссз498893 0.0 1014496
15:00−1сз369046 0.0 1015441
18:00−5зсз35940 0.0 101592
21:00−7зсз33940 0.0 101569
28 февраля, вс
вс2800:00−8з239275 0.0 101342
03:00−7ююз259287 0.0 1011108
06:00−6ююз2494100 0.0 100999
09:00−5юз2397100 0.1 100992
12:00−3з249577 0.0 1009260
15:000з369469 0.0 1011443
18:000з3893100 0.0 1011420
21:00−3зюз379585 0.0 1011157
1 марта, пн
пн100:00−1зюз499497 0.0 1009311
03:000зюз6119795 0.0 1008447
06:00+1з61495100 0.0 1005632
09:00+2з51393100 0.0 1003680
12:00+1зсз511100100 1.0 1003689
15:00+1зсз5129095 1.5 1003867
18:00−1з413870 0.0 1002567
21:00−2з4128925 0.0 1002503
2 марта, вт
вт200:00−3з4128646 0.0 1002394
03:00−2зсз5148671 0.0 1002566
06:00−3зсз514855 0.0 1002563
09:00−3з5148743 0.0 1002720
12:00−1зсз5119494 0.1 1004800
15:00+1ссз6118597 0.8 10071061
18:00−2ссз7147986 0.1 1011842
21:00−4ссз5148543 0.1 1014574
3 марта, ср
ср300:00−6сз411860 0.0 1016349
03:00−8з36900 0.0 1017122
06:00−7з499128 0.0 1017207
09:00−6з4109048 0.0 1016319
12:00−4зюз499075 0.0 1014331
15:00−2зюз5128888 0.0 1010489
18:00−1зюз61585100 0.0 1005830
21:00+1з71489100 0.1 999982